Vertical_Velocity
2 -2 0 2 1 2 -3 2 2 4 1 -0 2 0 2 2 1 4 0 -2 -0 -1 1 2 2 1 2 1 2 1 1 -0 -2 -2 -2 -4 -3 -3 -2 -1 -1 -2 -2
1 -1 1 5 1 4 4 1 -1 -0 0 2 2 -1 1 2 2 7 4 -1 -1 -1 -1 1 3 3 2 2 1 2 1 1 1 1 2 3 2 0 0 0 0 0 1
2 3 2 5 1 -1 -2 -1 1 1 2 3 1 4 -2 -2 -0 3 5 1 0 0 -1 1 1 3 5 3 3 3 3 2 3 2 3 2 -0 0 1 2 2 -0 -1
0 1 -0 -1 -1 -0 0 -1 2 -2 -4 -2 2 -2 -1 -1 -3 -1 -3 -1 5 -6 -6 -7 -2 -1 0 2 3 -1 4 4 3 1 -1 -2 2 2 0 -0 -2 1 2
0 1 -2 -2 -1 -2 0 -3 -2 0 -1 -2 -2 3 -8 0 -5 3 -3 -3 8 11 9 -5 -7 -9 -8 -4 3 4 4 5 10 7 5 5 3 1 5 5 5 2 -1
-1 0 1 -1 -0 -1 -2 -2 -2 -1 -2 2 -1 -9 2 -13 -1 2 32 -5 -4 -9 -5 -5 12 24 -16 8 -0 2 4 2 2 1 5 10 8 5 4 4 5 3 2
-1 -1 -2 -2 -2 -1 0 -0 -1 -3 -4 -1 -3 -4 -13 8 -19 19 -1 2 -3 -8 -5 -13 -4 15 31 -21 4 9 9 15 2 -6 8 9 10 8 9 8 4 5 0
-1 -1 -2 -3 -3 -3 -2 -2 -0 -4 -3 -4 5 -1 -7 -18 -7 -24 -19 -11 3 14 -3 9 -6 -8 -10 1 6 13 9 0 -3 6 -0 1 -3 6 11 9 4 4 7
-4 -3 -3 -2 -1 -0 -2 -3 -4 -2 -5 -4 -5 12 -5 1 -3 -10 -25 25 -10 -21 10 -8 -11 -15 -13 -13 -13 -15 -4 -2 4 0 3 4 5 -1 -8 1 5 2 6
-2 -2 -1 -1 -2 -1 -2 -3 -2 -1 -2 -0 -5 -5 -4 7 10 -12 -8 -18 -6 -11 -19 4 -8 -11 -11 15 10 -1 9 7 3 1 -2 -1 1 3 4 23 4 -8 -3
-4 -2 -2 -2 -2 -2 -2 -2 -3 -3 -3 -1 0 -3 -4 -2 -3 6 -5 -17 -7 -9 -2 -11 23 -19 -26 1 -14 37 10 6 12 -5 2 -6 0 17 13 9 -2 66 30
-2 -3 -1 -2 -2 -2 -3 -4 -4 -3 -2 -1 -1 -2 1 4 -0 0 -1 -6 4 -11 4 -15 -7 3 0 9 6 13 12 6 -3 7 2 -4 -5 -2 5 -1 -1 19 -12
-2 -4 -3 -2 -3 -4 -3 -2 -1 -2 -3 -2 -3 -3 -3 -4 2 1 6 -7 1 -7 -6 -6 -11 17 -11 10 -3 2 -14 -9 13 4 0 -3 3 -11 -3 -2 -3 -6 2
-4 -4 -4 -5 -4 -3 -2 -2 -3 -1 -0 -3 -4 -2 -2 -2 2 4 4 12 -17 -10 -8 -12 8 -18 2 16 -7 -1 -15 1 -1 -0 -4 -9 -10 0 -5 -5 -2 2 -6
-3 -3 -3 -3 -1 -1 -0 -1 -2 -2 -1 -3 -2 -2 -0 -2 -1 -0 3 5 9 0 -18 -17 1 -13 24 -22 22 -4 -24 -22 -7 -12 -14 10 5 -3 -12 2 5 3 3
-2 -3 -3 -1 -1 0 -2 -2 -1 -3 -2 -1 -3 1 -1 -2 0 -1 -3 8 9 8 -5 18 -15 0 -5 6 -3 -9 4 -13 -12 1 -17 -1 10 -15 10 7 1 0 -2
-2 -1 -1 -2 -1 -5 -3 -0 -2 -1 0 -1 -0 -0 -2 -3 1 3 2 -1 1 14 10 -35 1 -4 -8 -5 2 -10 -0 -4 -7 -9 -11 -8 -0 4 -3 -2 -7 -7 3
-0 -1 -3 -3 -6 -3 -1 -0 -1 -0 0 -2 -3 -0 -1 2 -1 3 -3 3 5 -2 9 3 1 -12 -1 -4 -2 2 -7 -2 -3 -5 1 7 -10 -2 7 3 5 4 -1
-0 -1 -4 -4 -3 -1 0 1 1 1 -1 -2 0 3 -0 2 -1 -2 4 -3 -12 -0 6 4 -19 -2 -3 0 -10 2 -3 -1 -3 -5 -4 -0 -10 -7 -4 1 1 6 11
-1 -4 -1 -1 -1 -0 2 -0 1 -1 -1 0 1 1 0 1 3 -1 -10 -1 4 -1 -3 1 -0 -5 5 -10 3 5 -23 5 -16 0 -16 -3 4 -4 9 6 -2 -5 3
-2 -2 -3 -4 -1 -0 0 -0 0 -0 -1 -3 -2 0 1 2 -4 4 15 2 -3 -4 4 2 -5 -6 -4 -4 1 -7 -6 -4 -12 2 -7 -12 -5 -4 -7 -10 -3 -8 0
-4 -5 -5 -0 -0 0 0 -1 3 -1 -0 -1 -1 -1 0 -2 0 -1 0 -5 14 19 4 2 20 6 -2 -3 -2 -0 -0 2 -25 17 4 -34 19 -11 -3 4 -8 14 3
-5 -2 0 3 -1 -1 0 2 2 -1 -4 2 1 1 -0 -1 7 -7 -10 -2 3 -6 3 13 -1 1 -8 3 -4 -6 4 5 -6 -17 7 -15 7 -9 5 -11 -9 -0 -4
-1 -0 -1 0 -2 -3 0 -0 -1 -2 -2 2 1 4 1 1 -8 3 13 5 -2 -2 5 3 14 -4 1 1 19 13 4 0 -8 -1 7 10 -10 10 -3 -0 -4 -4 3
-1 -1 -1 -2 -0 -0 -0 1 -3 0 -1 -0 1 -1 -3 2 -1 10 11 -1 -5 -11 -8 -5 -0 -2 -0 -2 1 6 -1 7 -8 -8 -7 5 -4 -6 -6 -10 -13 5 8
-2 -3 -4 -1 2 -0 -1 -5 2 -2 -4 -2 -1 -3 -3 3 10 0 5 4 -4 -8 2 -5 -5 -10 -6 -11 -1 7 4 6 6 -12 -7 8 -4 4 -2 -14 3 -6 -10
Height
1492 1492 1491 1490 1488 1486 1485 1484 1482 1481 1479 1476 1474 1471 1468 1466 1463 1461 1457 1454 1451 1448 1445 1444 1442 1441 1439 1438 1437 1436 1435 1435 1435 1435 1436 1436 1437 1437 1438 1440 1441 1442 1444
1490 1490 1489 1488 1487 1485 1484 1481 1479 1477 1475 1473 1469 1467 1464 1462 1459 1456 1452 1448 1445 1442 1439 1437 1435 1433 1432 1430 1429 1428 1427 1427 1426 1426 1426 1427 1428 1428 1429 1430 1431 1433 1435
1489 1489 1488 1487 1484 1482 1481 1480 1478 1475 1472 1469 1466 1463 1460 1457 1454 1451 1448 1444 1441 1438 1435 1432 1429 1428 1426 1424 1422 1421 1419 1418 1418 1418 1418 1418 1418 1418 1418 1419 1420 1422 1424
1487 1487 1486 1485 1483 1482 1481 1478 1475 1472 1469 1466 1463 1459 1456 1453 1449 1446 1442 1439 1436 1432 1430 1427 1425 1422 1420 1417 1415 1413 1412 1410 1409 1408 1408 1407 1407 1407 1408 1408 1410 1411 1413
1486 1486 1485 1483 1483 1481 1479 1476 1473 1470 1466 1463 1459 1456 1451 1448 1444 1441 1438 1435 1432 1429 1424 1421 1418 1416 1414 1411 1408 1406 1404 1402 1401 1400 1399 1397 1396 1395 1396 1396 1397 1398 1400
1486 1486 1484 1483 1481 1479 1476 1473 1470 1467 1463 1460 1455 1451 1448 1443 1439 1437 1435 1429 1428 1425 1422 1420 1417 1409 1408 1404 1403 1399 1397 1394 1393 1390 1388 1386 1384 1384 1383 1384 1386 1387 1388
1486 1485 1483 1482 1479 1477 1474 1471 1467 1463 1459 1456 1451 1447 1442 1440 1437 1433 1428 1426 1423 1421 1418 1415 1412 1406 1400 1400 1397 1394 1390 1387 1384 1380 1378 1376 1374 1373 1373 1373 1372 1373 1374
1485 1484 1482 1480 1477 1474 1471 1468 1464 1460 1458 1455 1451 1445 1438 1435 1433 1431 1427 1424 1420 1416 1412 1409 1405 1402 1398 1396 1392 1387 1384 1379 1376 1372 1368 1364 1362 1360 1359 1359 1359 1359 1361
1484 1482 1480 1477 1475 1472 1469 1466 1464 1461 1457 1455 1452 1449 1440 1434 1429 1427 1424 1420 1414 1413 1409 1403 1400 1397 1393 1388 1384 1380 1376 1372 1366 1363 1359 1356 1352 1351 1348 1347 1346 1345 1345
1482 1480 1477 1475 1472 1470 1468 1466 1463 1460 1457 1453 1450 1448 1444 1439 1430 1418 1419 1415 1413 1408 1403 1399 1394 1390 1386 1381 1377 1372 1368 1362 1357 1353 1350 1346 1343 1341 1338 1333 1332 1330 1327
1480 1478 1476 1474 1471 1469 1467 1464 1461 1458 1455 1452 1448 1444 1440 1435 1430 1424 1408 1408 1405 1402 1398 1393 1388 1384 1379 1374 1371 1366 1359 1352 1348 1345 1340 1338 1336 1331 1326 1321 1317 1301 1314
1479 1477 1475 1472 1470 1468 1465 1462 1459 1455 1452 1449 1445 1441 1437 1432 1426 1421 1411 1402 1397 1393 1390 1386 1383 1378 1373 1367 1361 1355 1349 1344 1343 1338 1332 1330 1326 1322 1316 1311 1304 1301 1293
1478 1476 1473 1470 1468 1465 1462 1459 1456 1452 1449 1445 1441 1436 1432 1428 1423 1417 1410 1398 1390 1384 1380 1379 1374 1369 1364 1361 1353 1348 1341 1337 1333 1328 1325 1322 1318 1312 1308 1302 1299 1294 1290
1475 1473 1470 1468 1465 1462 1459 1456 1452 1448 1444 1440 1436 1431 1426 1422 1418 1413 1407 1399 1384 1377 1371 1367 1367 1361 1356 1352 1346 1343 1337 1334 1327 1322 1317 1315 1311 1306 1299 1294 1291 1288 1283
1472 1469 1467 1464 1462 1459 1455 1451 1447 1443 1439 1434 1430 1425 1421 1416 1411 1407 1402 1397 1390 1374 1360 1357 1355 1353 1348 1344 1340 1334 1330 1325 1320 1314 1310 1305 1301 1296 1291 1287 1283 1279 1276
1468 1466 1464 1461 1458 1455 1451 1447 1442 1438 1434 1429 1425 1420 1415 1410 1405 1400 1395 1389 1384 1378 1364 1356 1350 1345 1341 1336 1332 1328 1322 1317 1311 1306 1301 1296 1290 1285 1281 1276 1273 1270 1267
1465 1463 1460 1458 1455 1451 1447 1442 1437 1433 1428 1424 1419 1413 1408 1404 1398 1393 1388 1382 1376 1371 1362 1349 1347 1338 1332 1328 1322 1318 1313 1308 1302 1297 1292 1287 1281 1275 1270 1266 1262 1259 1256
1462 1460 1458 1455 1451 1447 1442 1437 1431 1427 1422 1416 1412 1407 1402 1397 1391 1386 1381 1375 1370 1364 1358 1346 1338 1332 1327 1321 1314 1309 1303 1298 1292 1287 1282 1277 1272 1266 1260 1255 1253 1250 1247
1460 1457 1454 1450 1446 1441 1436 1431 1426 1421 1415 1410 1405 1400 1394 1389 1384 1379 1375 1369 1364 1357 1351 1343 1332 1327 1320 1314 1306 1300 1294 1288 1283 1278 1272 1268 1263 1258 1251 1245 1242 1240 1237
1456 1454 1450 1446 1441 1437 1431 1426 1421 1414 1408 1403 1398 1393 1388 1383 1378 1373 1368 1363 1357 1350 1343 1336 1327 1319 1314 1306 1302 1294 1283 1279 1272 1268 1262 1256 1252 1247 1242 1237 1233 1230 1227
1453 1450 1445 1441 1437 1431 1426 1420 1414 1407 1400 1394 1390 1386 1382 1377 1372 1367 1362 1356 1350 1343 1336 1327 1319 1312 1305 1298 1294 1288 1281 1269 1259 1260 1252 1245 1241 1237 1232 1228 1224 1221 1218
1449 1445 1440 1435 1429 1424 1420 1414 1408 1400 1394 1388 1383 1380 1375 1370 1365 1361 1356 1351 1345 1337 1328 1321 1310 1305 1298 1294 1287 1280 1272 1263 1250 1252 1246 1235 1234 1227 1222 1218 1216 1212 1209
1444 1439 1435 1430 1424 1419 1414 1408 1402 1395 1388 1384 1379 1375 1369 1364 1359 1353 1347 1341 1335 1330 1325 1316 1306 1300 1293 1286 1280 1269 1263 1257 1248 1238 1239 1225 1224 1217 1213 1209 1206 1202 1198
1439 1434 1428 1423 1418 1413 1408 1402 1395 1389 1385 1380 1375 1371 1365 1358 1353 1347 1339 1331 1325 1320 1315 1308 1301 1292 1286 1278 1272 1264 1255 1246 1239 1233 1232 1219 1216 1207 1203 1199 1195 1191 1188
1433 1428 1423 1417 1413 1407 1402 1396 1391 1385 1379 1374 1370 1365 1360 1352 1347 1340 1332 1323 1316 1308 1303 1298 1292 1284 1278 1272 1265 1256 1247 1240 1229 1225 1222 1216 1207 1199 1196 1189 1185 1182 1177
1428 1423 1417 1413 1408 1401 1397 1392 1388 1381 1375 1369 1364 1358 1353 1347 1340 1334 1326 1317 1307 1299 1292 1284 1279 1273 1268 1262 1257 1251 1243 1234 1225 1215 1215 1210 1201 1197 1185 1182 1178 1175 1171